Regional Weather Roundup
Issued by NWS

Home | Current Version | Previous Version | Text Only | Print | Product List | Glossary Off
Versions: 1 2 3 4 5 6 7 8 9 10 11 12 13 14 15 16 17 18 19 20 21 22 23 24 25 26 27 28 29 30 31 32 33 34 35 36 37 38 39 40 41 42 43 44 45 46 47 48 49 50

000
ASUS43 KTOP 301359
RWRKS

WEATHER ROUNDUP FOR KANSAS
NATIONAL WEATHER SERVICE GOODLAND KS
900 AM CDT MON MAY 30 2016

NOTE:  "FAIR" INDICATES FEW OR NO CLOUDS BELOW 12,000 FEET WITH NO
SIGNIFICANT WEATHER AND/OR OBSTRUCTIONS TO VISIBILITY.

KSZ001>006-013>018-027>032-041>047-301500-
NORTHWEST KANSAS

CITY           SKY/WX    TMP DP  RH WIND       PRES   REMARKS
GOODLAND       SUNNY     61  52  72 S8        30.02R
HAYS           CLOUDY    63  52  67 CALM      30.02S
HILL CITY      SUNNY     62  55  77 SE3       30.02S
RUSSELL        CLOUDY    65  58  78 SW3       30.01
$$

KSZ061>065-074>080-084>089-301500-
SOUTHWEST KANSAS

CITY           SKY/WX    TMP DP  RH WIND       PRES   REMARKS
DODGE CITY     SUNNY     65  54  67 S12       30.05R
ELKHART          N/A     59  53  80 SW8         N/A
GARDEN CITY    SUNNY     62  52  69 S12       30.04R
GREAT BEND     SUNNY     66  54  63 S6        30.02S
LIBERAL        SUNNY     61  52  72 S9        30.06F
$$

KSZ066>073-081>083-090>101-301500-
SOUTHEAST KANSAS

CITY           SKY/WX    TMP DP  RH WIND       PRES   REMARKS
CHANUTE        CLOUDY    71  65  81 S6        30.05R
COFFEYVILLE    CLOUDY    70  65  84 S6        30.07R
HUTCHINSON     SUNNY     70  62  76 S3        30.05R
MEDICINE LODGE   N/A     67  55  65 S7        30.04S
NEWTON         MOSUNNY   66  57  72 SW6       30.07S
PARSONS        PTSUNNY   71  65  81 S5        30.07R
WICHITA INTL   MOSUNNY   69  58  67 SW5       30.05R
WICHITA JABRA  PTSUNNY   67  58  72 W8        30.04S
WINFIELD       CLOUDY    69  62  78 SW3       30.06S
$$

KSZ007>012-019>026-033>040-048>060-102>105-301500-
NORTHEAST KANSAS

CITY           SKY/WX    TMP DP  RH WIND       PRES   REMARKS
CONCORDIA      SUNNY     70  61  73 SE5       30.02S
EMPORIA        CLOUDY    70  65  84 S8        30.05R
LAWRENCE       MOSUNNY   72  66  81 SE6       30.03F
MANHATTAN      SUNNY     71  63  75 SW5       30.02F
OLATHE IND     CLOUDY    73  66  78 SE8       30.06S
OLATHE EXE     MOSUNNY   71  65  81 S7        30.06S
SALINA         SUNNY     70  62  76 CALM      30.02F
TOPEKA BILLARD MOSUNNY   74  66  76 MISG      30.02F
TOPEKA FORBES  MOSUNNY   74  65  73 SE7       30.03F
$$




USA.gov is the U.S. government's official web portal to all federal, state and local government web resources and services.